Regional Weather Roundup
Issued by NWS

Home | Current Version | Previous Version | Graphics & Text | Print | Product List | Glossary Off
Versions: 1 2 3 4 5 6 7 8 9 10 11 12 13 14 15 16 17 18 19 20 21 22 23 24 25 26 27 28 29 30 31 32 33 34 35 36 37 38 39 40 41 42 43 44 45 46 47 48 49 50

000
ASUS43 KLSX 311107
RWRMO

WEATHER SUMMARY FOR MISSOURI
NATIONAL WEATHER SERVICE SPRINGFIELD MO
600 AM CDT TUE MAY 31 2016

NOTE: "FAIR" INDICATES FEW OR NO CLOUDS BELOW 12,000 FEET WITH NO
       SIGNIFICANT WEATHER AND/OR OBSTRUCTIONS TO VISIBILITY.
       CURRENT SKY AND/OR WEATHER CONDITIONS ARE NOT AVAILABLE FOR
       CHILLICOTHE AND FARMINGTON.

MOZ001>031-035>038-043-044-053-054-311200-
...NORTHERN AND WESTERN MISSOURI...

CITY           SKY/WX    TMP DP  RH WIND       PRES   REMARKS
KANSAS CTY INT CLOUDY    63  60  90 CALM      29.95R
KANSAS C DTWN  CLOUDY    65  61  87 CALM      29.95R
LEE`S SUMMIT   CLOUDY    63  60  90 E3        29.96R
ST JOSEPH      CLOUDY    63  61  93 SE3       29.94S
CHILLICOTHE      N/A     63  62  97 S6        29.99R
KIRKSVILLE     CLOUDY    63  61  93 CALM      29.98R

$$
MOZ066>068-077>081-088>096-101>105-311200-
...SOUTHWEST MISSOURI...

CITY           SKY/WX    TMP DP  RH WIND       PRES   REMARKS
SPRINGFIELD    CLOUDY    65  61  87 S6        29.95R
JOPLIN         CLOUDY    65  63  93 SE3       29.94F

$$
MOZ032>034-039>042-045>050-055>058-069>072-311200-
...CENTRAL MISSOURI...

CITY           SKY/WX    TMP DP  RH WIND       PRES   REMARKS
COLUMBIA       MOCLDY    64  62  93 SE7       29.97S
JEFFERSON CITY CLOUDY    65  63  93 CALM      29.97S
ROLLA          CLOUDY    63  61  93 CALM      29.97S
SEDALIA        CLOUDY    65  61  87 SE5       29.97S
WHITEMAN AFB   LGT RAIN  64  64 100 SE6       29.96R
WARRENSBURG    CLOUDY    61  61 100 CALM      29.96R

$$
MOZ051-052-059>065-311200-
...EAST CENTRAL MISSOURI...

CITY           SKY/WX    TMP DP  RH WIND       PRES   REMARKS
ST LOUIS INTL  CLOUDY    71  62  73 CALM      29.98R
SPIRIT OF STL  MOCLDY    65  65 100 CALM      29.97R
ST CHARLES     CLOUDY    68  65  90 E5        29.96S

$$
MOZ072>076-082>087-097>100-106>115-311200-
...SOUTH CENTRAL AND SOUTHEAST MISSOURI...

CITY           SKY/WX    TMP DP  RH WIND       PRES   REMARKS
CAPE GIRARDEAU CLOUDY    69  66  90 CALM      29.95S
FARMINGTON     CLOUDY    67  61  81 CALM      30.00R
POPLAR BLUFF   CLOUDY    68  64  87 NW6       29.94S
WEST PLAINS    CLOUDY    64  60  87 CALM      29.98F

$$


USA.gov is the U.S. government's official web portal to all federal, state and local government web resources and services.